DW3008 Weather Reports


Display with metric or nautical units.
time (UTC)temp
F
wind
direction
speed
MPH
gust
MPH
rain 1hr
in
rain 24hr
in
rain mn
in
humidity
%
barometer
mb
20210411210334 49 354 5.0 0.0 0.00 0.00 0.00 50 1025.3
20210411205951 49 360 6.0 0.0 0.00 0.00 0.00 50 1025.3
20210411205835 49 344 5.0 0.0 0.00 0.00 0.00 52 1025.3
20210411205122 49 343 5.0 0.0 0.00 0.00 0.00 52 1025.3
20210411204335 49 344 5.0 0.0 0.00 0.00 0.00 52 1025.6
20210411203846 49 344 4.0 0.0 0.00 0.00 0.00 51 1025.6
20210411203538 49 344 5.0 0.0 0.00 0.00 0.00 53 1025.6
20210411203236 48 344 6.0 0.0 0.00 0.00 0.00 53 1025.7
20210411202952 48 346 6.0 0.0 0.00 0.00 0.00 53 1025.7
20210411202153 48 335 6.0 0.0 0.00 0.00 0.00 53 1025.7
20210411201316 48 332 5.0 0.0 0.00 0.00 0.00 52 1025.8
20210411200824 48 336 5.0 0.0 0.00 0.00 0.00 51 1025.8
20210411200332 48 337 4.0 0.0 0.00 0.00 0.00 51 1025.8
20210411195959 48 337 4.0 0.0 0.00 0.00 0.00 51 1025.8
20210411195824 48 337 4.0 0.0 0.00 0.00 0.00 50 1025.8
20210411195027 48 336 4.0 0.0 0.00 0.00 0.00 52 1025.8
20210411194400 47 339 5.0 0.0 0.00 0.00 0.00 52 1025.9
20210411193841 47 343 5.0 0.0 0.00 0.00 0.00 52 1025.9
20210411193426 47 343 5.0 0.0 0.00 0.00 0.00 51 1025.9
20210411193054 47 344 5.0 0.0 0.00 0.00 0.00 50 1026.0
20210411192933 47 359 3.0 0.0 0.00 0.00 0.00 53 1026.0
20210411192059 46 1 3.0 0.0 0.00 0.00 0.00 54 1026.0
20210411191412 46 1 3.0 0.0 0.00 0.00 0.00 53 1026.0
20210411190835 47 7 2.0 0.0 0.00 0.00 0.00 54 1026.1
20210411190349 47 11 2.0 0.0 0.00 0.00 0.00 53 1026.1
20210411190118 48 20 1.0 0.0 0.00 0.00 0.00 53 1025.9
20210411185858 48 20 2.0 0.0 0.00 0.00 0.00 57 1025.9
20210411184931 47 20 2.0 0.0 0.00 0.00 0.00 58 1025.9
20210411184337 47 23 2.0 0.0 0.00 0.00 0.00 58 1026.0
20210411183930 47 23 2.0 0.0 0.00 0.00 0.00 60 1026.0
20210411183719 47 23 1.0 0.0 0.00 0.00 0.00 60 1026.0
20210411183236 47 23 2.0 0.0 0.00 0.00 0.00 62 1026.2
20210411183024 46 23 2.0 0.0 0.00 0.00 0.00 61 1026.1
20210411182130 46 23 2.0 0.0 0.00 0.00 0.00 64 1026.2
20210411181347 45 23 3.0 0.0 0.00 0.00 0.00 62 1026.2
20210411180901 45 346 2.0 0.0 0.00 0.00 0.00 62 1026.2
20210411180340 46 346 2.0 0.0 0.00 0.00 0.00 63 1026.3
20210411175942 45 346 2.0 0.0 0.00 0.00 0.00 65 1026.3
20210411175822 45 346 1.0 0.0 0.00 0.00 0.00 63 1026.3
20210411174331 45 346 2.0 0.0 0.00 0.00 0.00 65 1026.4
20210411173854 45 346 2.0 0.0 0.00 0.00 0.00 65 1026.4
20210411173404 45 346 2.0 0.0 0.00 0.00 0.00 65 1026.4
20210411173057 45 346 2.0 0.0 0.00 0.00 0.00 66 1026.3
20210411172927 45 346 2.0 0.0 0.00 0.00 0.00 67 1026.3
20210411172327 44 346 1.0 0.0 0.00 0.00 0.00 66 1026.3
20210411171422 44 346 1.0 0.0 0.00 0.00 0.00 66 1026.4
20210411170831 44 346 1.0 0.0 0.00 0.00 0.00 67 1026.4
20210411170314 43 346 1.0 0.0 0.00 0.00 0.00 69 1026.3
20210411165851 43 346 2.0 0.0 0.00 0.00 0.00 68 1026.3
20210411165720 43 346 2.0 0.0 0.00 0.00 0.00 68 1026.3
20210411165120 43 346 1.0 0.0 0.00 0.00 0.00 68 1026.3
20210411164333 42 346 1.0 0.0 0.00 0.00 0.00 69 1026.4
20210411163855 42 346 1.0 0.0 0.00 0.00 0.00 68 1026.4
20210411163410 42 346 1.0 0.0 0.00 0.00 0.00 69 1026.4
20210411163059 41 346 1.0 0.0 0.00 0.00 0.00 70 1026.4
20210411162855 41 346 1.0 0.0 0.00 0.00 0.00 69 1026.4
20210411162120 41 346 1.0 0.0 0.00 0.00 0.00 68 1026.5
20210411161341 40 346 1.0 0.0 0.00 0.00 0.00 68 1026.5
20210411160843 40 346 1.0 0.0 0.00 0.00 0.00 68 1026.5
20210411160350 40 346 1.0 0.0 0.00 0.00 0.00 68 1026.5
20210411155918 40 346 1.0 0.0 0.00 0.00 0.00 67 1026.5
20210411155801 40 346 0.0 0.0 0.00 0.00 0.00 69 1026.5
20210411155118 40 346 0.0 0.0 0.00 0.00 0.00 70 1026.5
20210411154339 39 346 0.0 0.0 0.00 0.00 0.00 71 1026.4
20210411153903 39 346 0.0 0.0 0.00 0.00 0.00 70 1026.4
20210411153310 39 346 0.0 0.0 0.00 0.00 0.00 71 1026.4
20210411152934 39 346 0.0 0.0 0.00 0.00 0.00 72 1026.4
20210411152818 38 346 0.0 0.0 0.00 0.00 0.00 74 1026.4
20210411151957 38 346 0.0 0.0 0.00 0.00 0.00 75 1026.4
20210411151351 37 346 0.0 0.0 0.00 0.00 0.00 77 1026.4
20210411150822 36 346 0.0 0.0 0.00 0.00 0.00 82 1026.3
20210411150345 36 346 0.0 0.0 0.00 0.00 0.00 83 1026.3
20210411145842 35 346 0.0 0.0 0.00 0.00 0.00 87 1026.5
20210411144405 33 346 0.0 0.0 0.00 0.00 0.00 91 1026.4
20210411143903 33 346 0.0 0.0 0.00 0.00 0.00 91 1026.4
20210411143321 32 346 0.0 0.0 0.00 0.00 0.00 90 1026.3
20210411142856 32 346 0.0 0.0 0.00 0.00 0.00 90 1026.2
20210411142500 32 346 0.0 0.0 0.00 0.00 0.00 90 1026.2
20210411110334 34 346 0.0 0.0 0.00 0.00 0.00 83 1025.3
20210411105917 34 346 0.0 0.0 0.00 0.00 0.00 83 1025.3
20210411105736 34 346 0.0 0.0 0.00 0.00 0.00 82 1025.3
20210411104952 34 346 0.0 0.0 0.00 0.00 0.00 82 1025.3
20210411104401 34 346 0.0 0.0 0.00 0.00 0.00 82 1025.3
20210411103836 34 346 0.0 0.0 0.00 0.00 0.00 82 1025.3
20210411103421 34 346 1.0 0.0 0.00 0.00 0.00 82 1025.3
20210411102841 34 346 0.0 0.0 0.00 0.00 0.00 82 1025.3
20210411101834 34 346 1.0 0.0 0.00 0.00 0.00 82 1025.3
20210411101353 34 346 1.0 0.0 0.00 0.00 0.00 82 1025.3
20210411100901 34 346 1.0 0.0 0.00 0.00 0.00 83 1025.3
20210411100345 34 346 0.0 0.0 0.00 0.00 0.00 85 1025.3
20210411095856 34 346 0.0 0.0 0.00 0.00 0.00 85 1025.3
20210411095656 34 346 0.0 0.0 0.00 0.00 0.00 85 1025.3
20210411094852 34 346 0.0 0.0 0.00 0.00 0.00 85 1025.3
20210411094317 34 346 0.0 0.0 0.00 0.00 0.00 85 1025.2
20210411093850 34 346 0.0 0.0 0.00 0.00 0.00 85 1025.2
20210411093321 34 346 0.0 0.0 0.00 0.00 0.00 85 1025.2
20210411092851 34 346 0.0 0.0 0.00 0.00 0.00 85 1025.1
20210411092627 34 346 0.0 0.0 0.00 0.00 0.00 85 1025.1
20210411091858 34 346 0.0 0.0 0.00 0.00 0.00 85 1025.1
20210411091358 34 346 0.0 0.0 0.00 0.00 0.00 85 1025.0
20210411090827 34 346 0.0 0.0 0.00 0.00 0.00 85 1025.0
20210411090345 34 346 0.0 0.0 0.00 0.00 0.00 85 1025.0
20210411090046 35 346 0.0 0.0 0.00 0.00 0.00 85 1024.9
20210411085827 35 346 0.0 0.0 0.00 0.00 0.00 84 1024.9
20210411084932 35 346 0.0 0.0 0.00 0.00 0.00 84 1024.9
20210411084311 35 346 0.0 0.0 0.00 0.00 0.00 84 1024.8
20210411083818 35 346 0.0 0.0 0.00 0.00 0.00 83 1024.8
20210411083324 35 346 0.0 0.0 0.00 0.00 0.00 83 1024.8
20210411082925 35 346 0.0 0.0 0.00 0.00 0.00 83 1024.8
20210411082634 35 346 0.0 0.0 0.00 0.00 0.00 82 1024.8
20210411081858 36 346 0.0 0.0 0.00 0.00 0.37 82 1024.9
20210411081320 36 346 0.0 0.0 0.00 0.00 0.37 81 1024.9
20210411080827 36 346 0.0 0.0 0.00 0.00 0.37 80 1024.9
20210411080329 36 346 0.0 0.0 0.00 0.00 0.37 80 1024.9
20210411075915 36 346 0.0 0.0 0.00 0.00 0.37 79 1025.0
20210411075727 36 346 0.0 0.0 0.00 0.00 0.37 78 1025.0
20210411074911 36 346 0.0 0.0 0.00 0.00 0.37 77 1025.0
20210411074324 36 346 0.0 0.0 0.00 0.00 0.37 76 1024.9
20210411073839 37 346 0.0 0.0 0.00 0.00 0.37 75 1024.9
20210411073313 37 346 0.0 0.0 0.00 0.00 0.37 75 1024.8
20210411072839 37 346 0.0 0.0 0.00 0.00 0.37 74 1024.8
20210411072632 37 346 0.0 0.0 0.00 0.00 0.37 74 1024.8
20210411071915 37 346 0.0 0.0 0.00 0.00 0.37 74 1024.7
20210411071324 37 346 0.0 0.0 0.00 0.00 0.37 74 1024.7
20210411070837 37 346 0.0 0.0 0.00 0.00 0.37 74 1024.7
20210411070330 37 346 1.0 0.0 0.00 0.00 0.37 74 1024.7
20210411065856 38 346 0.0 0.0 0.00 0.00 0.37 74 1024.8
20210411065130 38 346 0.0 0.0 0.00 0.00 0.37 73 1024.8
20210411064408 38 346 0.0 0.0 0.00 0.00 0.37 72 1024.8
20210411063823 38 346 0.0 0.0 0.00 0.00 0.37 71 1024.8
20210411063358 38 346 0.0 0.0 0.00 0.00 0.37 71 1024.8
20210411062737 38 346 0.0 0.0 0.00 0.00 0.37 71 1024.8
20210411061318 38 346 0.0 0.0 0.00 0.00 0.37 72 1024.7
20210411060851 38 346 0.0 0.0 0.00 0.00 0.37 70 1024.7
20210411060425 39 346 0.0 0.0 0.00 0.00 0.37 69 1024.7
20210411055907 39 346 0.0 0.0 0.00 0.00 0.37 68 1024.7
20210411055052 39 346 0.0 0.0 0.00 0.00 0.37 67 1024.7
20210411054344 39 346 0.0 0.0 0.00 0.00 0.37 66 1024.5
20210411053848 39 346 0.0 0.0 0.00 0.00 0.37 66 1024.5
20210411053415 39 346 0.0 0.0 0.00 0.00 0.37 67 1024.5
20210411053039 40 346 0.0 0.0 0.00 0.00 0.37 67 1024.3
20210411052529 40 346 0.0 0.0 0.00 0.00 0.37 66 1024.3
20210411050840 40 346 0.0 0.0 0.00 0.00 0.37 66 1024.3
20210411050341 40 346 0.0 0.0 0.00 0.00 0.37 64 1024.2
20210411045619 41 346 0.0 0.0 0.00 0.00 0.37 63 1024.2
20210411044315 41 346 0.0 0.0 0.00 0.00 0.37 63 1024.2
20210411043854 41 346 0.0 0.0 0.00 0.00 0.37 62 1024.2
20210411043420 42 346 0.0 0.0 0.00 0.00 0.37 61 1024.2
20210411042201 42 346 0.0 0.0 0.00 0.00 0.37 57 1024.1
20210411041333 42 346 0.0 0.0 0.00 0.00 0.37 56 1024.1
20210411040850 42 346 0.0 0.0 0.00 0.00 0.37 56 1024.1
20210411040310 43 346 0.0 0.0 0.00 0.00 0.37 55 1023.9
20210411035801 43 346 0.0 0.0 0.00 0.00 0.37 54 1023.9
20210411034331 43 346 0.0 0.0 0.00 0.00 0.37 54 1023.7
20210411033908 43 346 0.0 0.0 0.00 0.00 0.37 54 1023.7
20210411033323 43 346 0.0 0.0 0.00 0.00 0.37 54 1023.7
20210411032054 43 346 1.0 0.0 0.00 0.00 0.37 54 1023.5
20210411031338 43 346 0.0 0.0 0.00 0.00 0.37 55 1023.2
20210411030852 44 346 0.0 0.0 0.00 0.00 0.37 55 1023.3
20210411025931 44 346 3.0 0.0 0.00 0.00 0.37 53 1023.1
20210411024905 44 346 2.0 0.0 0.00 0.00 0.37 53 1023.1
20210411024357 44 346 1.0 0.0 0.00 0.00 0.37 53 1023.0
20210411023823 44 346 1.0 0.0 0.00 0.00 0.37 52 1023.0
20210411023338 45 346 1.0 0.0 0.00 0.00 0.37 53 1023.0
20210411022741 45 346 3.0 0.0 0.00 0.00 0.37 50 1022.9
20210411021312 45 336 1.0 0.0 0.00 0.00 0.37 52 1022.9
20210411020814 45 337 3.0 0.0 0.00 0.00 0.37 52 1022.9
20210411012829 45 326 6.0 0.0 0.00 0.00 0.37 54 1022.7
20210411011333 45 335 6.0 0.0 0.00 0.00 0.37 57 1022.7
20210411010846 45 337 8.0 0.0 0.00 0.00 0.37 57 1022.7
20210411010430 45 337 7.0 0.0 0.00 0.00 0.37 55 1022.7
20210411010124 46 352 8.0 0.0 0.00 0.00 0.37 54 1022.6
20210411005351 46 311 8.0 0.0 0.00 0.00 0.37 54 1022.6
20210411003842 46 350 9.0 0.0 0.00 0.00 0.37 50 1022.5
20210411003320 47 340 8.0 0.0 0.00 0.00 0.37 51 1022.5
20210411002831 47 347 7.0 0.0 0.00 0.00 0.37 50 1022.4
20210411002343 47 350 7.0 0.0 0.00 0.00 0.37 48 1022.4
20210411001826 47 360 7.0 0.0 0.00 0.00 0.37 48 1022.4
20210411000835 48 344 6.0 0.0 0.00 0.00 0.37 46 1022.1
20210411000421 48 353 8.0 0.0 0.00 0.00 0.37 42 1022.1
20210410235818 47 354 8.0 0.0 0.00 0.00 0.37 42 1022.1
20210410235338 47 340 7.0 0.0 0.00 0.00 0.37 42 1022.1
20210410234837 47 340 8.0 0.0 0.00 0.00 0.37 41 1022.1
20210410234325 47 349 9.0 0.0 0.00 0.00 0.37 40 1022.0
20210410233838 47 337 8.0 0.0 0.00 0.00 0.37 37 1022.0
20210410233354 48 1 7.0 0.0 0.00 0.00 0.37 37 1022.0
20210410232855 48 356 6.0 0.0 0.00 0.00 0.37 40 1021.9
20210410232309 48 335 6.0 0.0 0.00 0.00 0.37 39 1021.9
20210410231815 48 346 6.0 0.0 0.00 0.00 0.37 33 1021.8
20210410231349 48 333 7.0 0.0 0.00 0.00 0.37 32 1021.8
20210410230843 48 344 7.0 0.0 0.00 0.00 0.37 40 1021.8
20210410230402 48 330 6.0 0.0 0.00 0.00 0.37 37 1021.8
20210410225852 48 335 7.0 0.0 0.00 0.00 0.37 42 1021.6
20210410225338 48 333 7.0 0.0 0.00 0.00 0.37 38 1021.6
20210410224851 48 360 6.0 0.0 0.00 0.00 0.37 35 1021.6
20210410224331 48 323 6.0 0.0 0.00 0.00 0.37 37 1021.6
20210410223856 48 344 6.0 0.0 0.00 0.00 0.37 35 1021.6
20210410223400 48 340 7.0 0.0 0.00 0.00 0.37 37 1021.6
20210410222957 48 346 6.0 0.0 0.00 0.00 0.37 34 1021.4
20210410222800 48 339 6.0 0.0 0.00 0.00 0.37 37 1021.4
20210410221332 48 357 5.0 0.0 0.00 0.00 0.37 38 1021.5
20210410220905 48 336 6.0 0.0 0.00 0.00 0.37 39 1021.5
20210410220320 48 326 7.0 0.0 0.00 0.00 0.37 38 1021.5
20210410215847 49 336 4.0 0.0 0.00 0.00 0.37 36 1021.4
20210410214324 48 335 6.0 0.0 0.00 0.00 0.37 41 1021.4
20210410213834 47 360 5.0 0.0 0.00 0.00 0.37 41 1021.4
20210410213331 48 335 4.0 0.0 0.00 0.00 0.37 40 1021.4
20210410212950 47 342 5.0 0.0 0.00 0.00 0.37 43 1021.2
20210410212811 47 336 6.0 0.0 0.00 0.00 0.37 42 1021.2
20210410211954 47 340 6.0 0.0 0.00 0.00 0.37 43 1021.2
20210410211313 47 329 6.0 0.0 0.00 0.00 0.37 40 1021.0
20210410210853 47 360 5.0 0.0 0.00 0.00 0.37 40 1021.0